[[{"header":{"parameterUnit":"m.s-1","parameterCategory":1,"la1":30.2992,"la2":30.254,"lo1":-89.0895,"lo2":-89.0443,"dy":0.0025,"dx":0.0025,"nx":19,"ny":19,"refTime":"2026-05-06T03:00:00:Z","depth":0,"parameterNumber":2,"parameterNumberName":"U-component_of_WINDS"},"data":[0,0,0,-0.9433,-0.9433,-0.9432,-0.9432,-0.9426,-0.9426,0,0,0,0,0,0,0,0,0,0,0,-0.9432,-0.9432,-0.9433,-0.9433,-0.9432,-0.9432,-0.9426,-0.9426,0,0,0,0,0,0,0,0,0,0,0,-0.9432,-0.9432,-0.9432,-0.9433,-0.9432,-0.9432,-0.9426,-0.9428,0,0,0,0,0,0,0,0,0,0,-0.943,-0.9428,-0.9432,-0.9432,-0.9433,-0.9432,-0.9432,-0.9428,-0.9428,-0.9425,0,-0.9422,0,-0.9424,-0.9425,-0.9425,0,0,0,-0.9434,-0.9428,-0.9429,-0.9432,-0.9433,-0.9432,-0.9433,-0.9428,-0.9428,-0.9425,-0.9422,-0.9422,-0.9424,-0.9425,-0.9425,-0.9407,-0.9407,0,0,-0.9434,-0.9431,-0.9429,-0.9429,-0.943,-0.9433,-0.9433,-0.9428,-0.9425,-0.9422,-0.9422,-0.9424,-0.9425,-0.9425,-0.9407,-0.9407,0,0,0,-0.9434,-0.943,-0.9432,-0.9429,-0.9429,-0.9433,-0.9433,-0.9425,-0.9426,-0.9422,-0.9424,-0.9425,-0.9425,-0.9407,-0.9407,-0.9397,0,0,0,-0.9434,-0.943,-0.9432,-0.943,-0.9429,-0.9427,-0.943,-0.9426,-0.9426,-0.9424,-0.9425,-0.9425,-0.9407,-0.9407,-0.9398,-0.9393,0,0,0,-0.9433,-0.943,-0.9429,-0.9429,-0.9429,-0.9427,-0.9428,-0.9426,-0.9427,-0.9425,-0.9425,-0.9407,-0.9407,-0.9398,-0.9393,-0.9387,0,0,0,-0.943,-0.9419,-0.9429,-0.9418,-0.9429,-0.9422,-0.9428,-0.9423,-0.942,-0.9425,-0.9407,-0.9407,-0.9398,-0.9394,-0.9388,-0.9381,-0.9378,0,0,-0.9414,-0.9417,-0.9411,-0.942,-0.9411,-0.9422,-0.9411,-0.9411,-0.9414,-0.9409,-0.9409,-0.9398,-0.9393,-0.9387,-0.9363,-0.936,0,0,0,-0.9405,-0.9401,-0.9399,-0.9397,-0.9398,-0.9399,-0.9402,-0.9403,-0.9399,-0.9411,-0.9394,-0.9392,-0.9388,-0.9385,-0.9383,-0.938,-0.9406,-0.9406,-0.9406,-0.9376,-0.9382,-0.9373,-0.9379,-0.9377,-0.9382,-0.938,-0.9382,-0.9387,-0.9383,-0.9381,-0.9366,-0.9362,-0.936,-0.9358,-0.9378,-0.9378,-0.9378,-0.9378,-0.9354,-0.9348,-0.9358,-0.9353,-0.9359,-0.9354,-0.9359,-0.9363,-0.9359,-0.9367,-0.9364,-0.9371,-0.9357,-0.9355,-0.9378,-0.9378,-0.9378,-0.9378,-0.9378,-0.9335,-0.9333,-0.9336,-0.9335,-0.9333,-0.934,-0.9337,-0.9343,-0.9348,-0.9345,-0.9344,-0.9345,-0.9345,-0.9345,-0.9345,-0.9345,-0.9345,-0.9345,-0.9345,-0.9314,-0.9317,-0.9314,-0.9316,-0.9317,-0.9318,-0.9324,-0.9325,-0.9326,-0.9331,-0.9331,-0.9337,-0.9355,-0.936,-0.9344,-0.9344,-0.9344,-0.9344,-0.9344,-0.9288,-0.9295,-0.9291,-0.9291,-0.9295,-0.9294,-0.9303,-0.9304,-0.9305,-0.9303,-0.9311,-0.9324,-0.9327,-0.9328,-0.9332,-0.931,-0.931,-0.931,-0.931,-0.9272,-0.9275,-0.9272,-0.9273,-0.9275,-0.9283,-0.9278,-0.9283,-0.9289,-0.9291,-0.9295,-0.9301,-0.9302,-0.9304,-0.9307,-0.931,-0.9283,-0.9283,-0.9283,-0.9256,-0.926,-0.9254,-0.9262,-0.9266,-0.927,-0.9266,-0.9266,-0.9275,-0.9282,-0.9292,-0.9293,-0.9302,-0.9305,-0.931,-0.9313,-0.932,0,0]},{"header":{"parameterUnit":"m.s-1","parameterCategory":1,"la1":30.2992,"la2":30.254,"lo1":-89.0895,"lo2":-89.0443,"dy":0.0025,"dx":0.0025,"nx":19,"ny":19,"refTime":"2026-05-06T03:00:00:Z","depth":0,"parameterNumber":3,"parameterNumberName":"V-component_of_WINDS"},"data":[0,0,0,5.1584,5.1584,5.1588,5.1588,5.1605,5.1606,0,0,0,0,0,0,0,0,0,0,0,5.1591,5.1591,5.1584,5.1584,5.1588,5.1588,5.1605,5.1606,0,0,0,0,0,0,0,0,0,0,0,5.159,5.1591,5.1591,5.1584,5.1588,5.1588,5.1605,5.1598,0,0,0,0,0,0,0,0,0,0,5.1592,5.1606,5.1591,5.1591,5.1584,5.1588,5.1588,5.1598,5.1599,5.1609,0,5.1621,0,5.1614,5.1608,5.1608,0,0,0,5.1579,5.1605,5.1599,5.1591,5.1585,5.1588,5.1585,5.1598,5.1599,5.1611,5.1621,5.1621,5.1614,5.1608,5.1608,5.1688,5.1688,0,0,5.1579,5.1595,5.1598,5.16,5.16,5.1585,5.1585,5.1598,5.1611,5.1621,5.1621,5.1614,5.1608,5.1608,5.1687,5.1688,0,0,0,5.1582,5.1596,5.1589,5.16,5.1599,5.1585,5.1585,5.161,5.1606,5.1621,5.1614,5.1608,5.1609,5.1686,5.1687,5.1734,0,0,0,5.1581,5.1597,5.1589,5.1599,5.1599,5.1605,5.1597,5.1605,5.1606,5.1614,5.1608,5.1609,5.1686,5.1687,5.1731,5.1753,0,0,0,5.1588,5.1598,5.1601,5.16,5.1602,5.1604,5.1601,5.1605,5.1603,5.1608,5.1609,5.1685,5.1687,5.1729,5.1749,5.1778,0,0,0,5.1599,5.1643,5.1602,5.1648,5.1603,5.1633,5.1601,5.1623,5.1633,5.1608,5.1686,5.1687,5.1728,5.1746,5.1776,5.1805,5.1819,0,0,5.1664,5.1651,5.1677,5.1641,5.1683,5.1631,5.168,5.1674,5.166,5.1679,5.1681,5.1732,5.1749,5.1778,5.1894,5.1906,0,0,0,5.1703,5.1722,5.1729,5.174,5.1736,5.1734,5.1719,5.1716,5.1732,5.1673,5.1751,5.176,5.1776,5.179,5.1799,5.1812,5.1694,5.1694,5.1694,5.1818,5.1797,5.1838,5.1817,5.1828,5.1811,5.1817,5.1811,5.1787,5.1806,5.1812,5.1885,5.1901,5.1908,5.1922,5.1826,5.1827,5.1827,5.1827,5.191,5.1932,5.1899,5.1927,5.1904,5.1927,5.1913,5.1896,5.1914,5.1879,5.1893,5.1856,5.1921,5.1932,5.183,5.183,5.1829,5.1829,5.1829,5.1981,5.1988,5.1985,5.1997,5.2009,5.1987,5.2006,5.1985,5.1966,5.1979,5.1982,5.1981,5.1977,5.1982,5.1983,5.1983,5.1983,5.1983,5.1983,5.2057,5.2051,5.207,5.2069,5.2073,5.2075,5.2059,5.2062,5.2061,5.2044,5.2044,5.2018,5.1932,5.1911,5.1987,5.1987,5.1986,5.1986,5.1985,5.2156,5.213,5.2159,5.2162,5.216,5.2173,5.2146,5.2155,5.2154,5.2164,5.2136,5.2076,5.2062,5.2054,5.2036,5.214,5.214,5.214,5.214,5.2216,5.2207,5.2231,5.2238,5.2243,5.2221,5.2254,5.2243,5.2227,5.2225,5.2207,5.2182,5.2175,5.2165,5.2154,5.2137,5.2265,5.2265,5.2265,5.2275,5.2266,5.2297,5.2281,5.2277,5.2275,5.2305,5.2315,5.2291,5.227,5.2223,5.2218,5.2177,5.2165,5.2141,5.2126,5.2094,0,0]}]]